Weather History for Ann Arbor, MI

Change the Weather History Date:

Sunday, March 24, 2013

  Actual Average Record
Temperature  
Mean Temperature 28 °F -  
Max Temperature 37 °F 45 °F 69 °F (2003)
Min Temperature 21 °F 26 °F 15 °F (2014)
Degree Days  
Heating Degree Days 36    
Moisture  
Dew Point 21 °F    
Average Humidity 69    
Maximum Humidity 85    
Minimum Humidity 46    
Precipitation  
Precipitation 0.00 in - - ()
Sea Level Pressure  
Sea Level Pressure 29.87 in    
Wind  
Wind Speed 7 mph (ENE)    
Max Wind Speed 20 mph    
Max Gust Speed 29 mph    
Visibility 10 miles    
Events      
Averages and records for this station are not official NWS values.
T = Trace of Precipitation, MM = Missing Value Source: NWS Daily Summary

Daily Weather History Graph

Daily Weather History Graph

Search for Another Location

Airport:

Trip Planner

Search our weather history database for the weather conditions in past years. The results will help you decide how hot, cold, wet, or windy it might be!

Date:

Astronomy

Mar. 24, 2013 Rise Set
Actual Time 7:30 AM EDT 7:52 PM EDT
Civil Twilight 7:02 AM EDT 8:20 PM EDT
Nautical Twilight 6:29 AM EDT 8:53 PM EDT
Astronomical Twilight 5:56 AM EDT 9:27 PM EDT
Moon 5:17 PM EDT (3/24) 5:43 AM EDT (3/24)
Length of Visible Light 13h 17m
Length of Day
12h 21m
Waxing Gibbous, 91% of the Moon is Illuminated
Mar 24
Waxing Gibbous
Mar 27
Full
Apr 3
Last Quarter
Apr 10
New
Apr 18
First Quarter

Hourly Weather History & Observations

Time (EDT) Temp. Windchill Dew Point Humidity Pressure Visibility Wind Dir Wind Speed Gust Speed Precip Events Conditions
12:15 AM 26.6 °F 20.0 °F 19.4 °F 74% 30.01 in 10.0 mi NE 5.8 mph - N/A   Scattered Clouds
12:53 AM 27.0 °F - 19.9 °F 75% 30.04 in 10.0 mi Calm Calm - N/A   Clear
1:53 AM 23.0 °F - 19.0 °F 85% 30.04 in 10.0 mi Calm Calm - N/A   Clear
2:53 AM 21.9 °F 17.2 °F 18.0 °F 85% 30.03 in 8.0 mi NNE 3.5 mph - N/A   Clear
3:53 AM 21.0 °F - 17.1 °F 85% 30.03 in 9.0 mi Calm Calm - N/A   Clear
4:53 AM 23.0 °F - 19.0 °F 85% 30.03 in 9.0 mi Calm Calm - N/A   Clear
5:53 AM 25.0 °F - 21.0 °F 85% 30.01 in 10.0 mi Calm Calm - N/A   Clear
6:53 AM 26.1 °F 21.9 °F 21.0 °F 81% 30.01 in 10.0 mi NE 3.5 mph - N/A   Clear
7:53 AM 27.0 °F 20.5 °F 21.9 °F 81% 29.99 in 10.0 mi NE 5.8 mph - N/A   Clear
8:53 AM 28.0 °F 20.8 °F 23.0 °F 81% 29.98 in 10.0 mi NE 6.9 mph - N/A   Clear
9:53 AM 30.0 °F 21.7 °F 23.0 °F 75% 29.97 in 10.0 mi ENE 9.2 mph - N/A   Clear
10:53 AM 30.9 °F 21.2 °F 23.0 °F 72% 29.92 in 10.0 mi ENE 12.7 mph 21.9 mph N/A   Scattered Clouds
11:53 AM 33.1 °F 23.4 °F 23.0 °F 66% 29.90 in 10.0 mi ENE 13.8 mph 21.9 mph N/A   Partly Cloudy
12:53 PM 36.0 °F 27.1 °F 23.0 °F 59% 29.87 in 10.0 mi ENE 13.8 mph 24.2 mph N/A   Clear
1:26 PM 35.6 °F 27.5 °F 21.2 °F 56% 29.82 in 10.0 mi East 11.5 mph 23.0 mph N/A   Mostly Cloudy
1:53 PM 36.0 °F 25.3 °F 21.9 °F 57% 29.83 in 10.0 mi ENE 19.6 mph 24.2 mph N/A   Mostly Cloudy
2:53 PM 36.0 °F 27.1 °F 21.9 °F 57% 29.80 in 10.0 mi ENE 13.8 mph 20.7 mph N/A   Overcast
3:53 PM 36.0 °F 26.7 °F 23.0 °F 59% 29.78 in 10.0 mi ENE 15.0 mph 21.9 mph N/A   Overcast
4:53 PM 36.0 °F 26.7 °F 23.0 °F 59% 29.75 in 10.0 mi East 15.0 mph 20.7 mph N/A   Overcast
5:53 PM 36.0 °F 26.0 °F 17.1 °F 46% 29.71 in 10.0 mi ENE 17.3 mph 27.6 mph N/A   Overcast
6:53 PM 33.1 °F 23.0 °F 17.1 °F 52% 29.70 in 10.0 mi ENE 15.0 mph 25.3 mph N/A   Overcast
7:53 PM 32.0 °F 20.8 °F 19.9 °F 61% 29.69 in 10.0 mi NE 17.3 mph 25.3 mph N/A   Overcast
8:53 PM 32.0 °F 23.0 °F 19.9 °F 61% 29.69 in 10.0 mi NE 11.5 mph 23.0 mph N/A   Overcast
9:53 PM 32.0 °F 20.1 °F 21.0 °F 64% 29.67 in 10.0 mi ENE 19.6 mph 28.8 mph N/A   Overcast
10:53 PM 32.0 °F 22.5 °F 21.9 °F 66% 29.65 in 10.0 mi NE 12.7 mph 24.2 mph N/A   Overcast
11:53 PM 32.0 °F 22.5 °F 21.9 °F 66% 29.64 in 10.0 mi NE 12.7 mph 21.9 mph N/A   Overcast